Погода в Люпаньшуе

Китай     26°35′39″N   104°50′09″E
темп.,
°C
ветер,
м/с
пор.,
м/с
влажн.,
%
обл.,
%
осадки,
мм/ч
давл.,
гПа
погр.,
м
9 мая, вс
вс923:00+15ю118178 0.3 101210
02:00+14ю118958 0.3 101111
05:00+13ююз119184 0.0 101011
08:00+15юз1282100 0.0 1010164
11:00+21ююз47558 0.0 10081508
14:00+23ююв585199 0.0 10041344
17:00+20ю366537 0.0 1001389
20:00+19ююв3373100 0.0 100365
10 мая, пн
пн1023:00+16ююв328380 0.1 100531
02:00+15ююз22780 0.2 100428
05:00+13ююз22810 0.0 100427
08:00+16ююз36730 0.0 1004293
11:00+22ююз564268 0.0 10031490
14:00+26юз810316 0.0 9992755
17:00+26юз4834100 0.0 996786
20:00+21вюв125395 0.0 99930
11 мая, вт
вт1123:00+18ю126713 0.0 100340
02:00+16ю11620 0.0 100311
05:00+14св22810 0.0 100412
08:00+16св228431 0.0 1006320
11:00+20всв326484 0.4 10071157
14:00+20св436299 1.3 1005816
17:00+19всв346661 0.7 1004523
20:00+16св368259 1.7 1007193
12 мая, ср
ср1223:00+15всв238399 0.4 1009224
02:00+14св119139 0.8 100816
05:00+12св119434 0.0 100811
08:00+15ююв128697 0.0 1009258
11:00+18ююз247371 0.2 1007878
14:00+20вюв4468100 1.5 1003386
17:00+20юв347292 0.1 1001327
20:00+18юв2273100 0.2 100219
13 мая, чт
чт1323:00+17ю22870 0.2 100414
02:00+15ю228885 0.3 100413
05:00+14зюз1180100 0.0 100410
08:00+17ююв2369100 0.0 1005156
11:00+23ююз6948100 0.0 10031827
14:00+22юз8124784 0.0 10011120
17:00+23ююз9144625 0.0 9991847
20:00+19ююз335211 0.0 100024